User: anonymous   Login
Location: Unspecified
(0.0000°N, 0.0000°E)
Time: 02:25:19
(UTC+00:00)
Language:

SO-67 - Orbit

View from above orbital plane
View from above orbital plane
View from above satellite
View from above satellite

Ground track
Ground track

The orbit data is extracted from the following two-line orbital elements,

1 35870U 09049F   17119.87483860 +.00007214 +00000-0 +11724-3 0  9990
2 35870 097.1045 137.0407 0000928 170.1462 311.7925 15.52999682425727
Epoch (UTC): 29 April 2017 20:59:46
Eccentricity: 0.0000928
inclination: 97.1045°
perigee height: 407 km
apogee height: 408 km
right ascension of ascending node: 137.0407°
argument of perigee: 170.1462°
revolutions per day: 15.52999682
mean anomaly at epoch: 311.7925°
orbit number at epoch: 42572

The dashed part of the orbit path shows where the satellite is in the earth's shadow,  

DLR